VIR5F EGPH-KJFK

Flight info

Callsign VIR5F
Flight time N/A
Altitude 37000
Route GOSA1D GOSAM P600 FENIK NORBO MAC MOLAK GISTI MALOT NATB UMESI TUSKY PLYMM PARCH4
Aircraft A330/H-SDE2E3FGHIJ1RWXYZ/LB1

Departure

Time 2026-04-21 22:45
Airport Edinburgh Airport (EGPH)

Arrival

Time N/A
Airport John F. Kennedy International Airport (KJFK)
Time Latitude Longitude Altitude Speed Heading
2026-04-21 22:35 55.94899 -3.35981 108 ft 0 kts 255°
2026-04-21 22:38 55.94909 -3.35922 108 ft 15 kts 251°
2026-04-21 22:39 55.94901 -3.35763 109 ft 0 kts 311°
2026-04-21 22:39 55.94904 -3.35769 109 ft 0 kts 311°
2026-04-21 22:39 55.94912 -3.35792 109 ft 11 kts 303°
2026-04-21 22:40 55.95002 -3.35849 109 ft 16 kts 17°
2026-04-21 22:40 55.95074 -3.35923 108 ft 15 kts 297°
2026-04-21 22:40 55.95111 -3.36093 106 ft 18 kts 290°
2026-04-21 22:40 55.95114 -3.36344 106 ft 23 kts 234°
2026-04-21 22:41 55.95032 -3.36584 106 ft 22 kts 239°
2026-04-21 22:41 55.94956 -3.36808 104 ft 22 kts 239°
2026-04-21 22:41 55.94883 -3.37022 104 ft 21 kts 239°
2026-04-21 22:41 55.94809 -3.37242 106 ft 28 kts 239°
2026-04-21 22:42 55.94707 -3.37531 106 ft 30 kts 240°
2026-04-21 22:42 55.94611 -3.37824 108 ft 27 kts 239°
2026-04-21 22:42 55.94522 -3.38083 112 ft 24 kts 235°
2026-04-21 22:42 55.94444 -3.38312 114 ft 22 kts 244°
2026-04-21 22:43 55.94374 -3.38525 115 ft 20 kts 239°
2026-04-21 22:43 55.94311 -3.38710 117 ft 17 kts 239°
2026-04-21 22:43 55.94301 -3.38869 119 ft 14 kts 315°
2026-04-21 22:43 55.94317 -3.38891 119 ft 0 kts 324°
2026-04-21 22:44 55.94378 -3.38960 118 ft 16 kts 328°
2026-04-21 22:44 55.94445 -3.38890 116 ft 15 kts 63°
2026-04-21 22:44 55.94534 -3.38624 113 ft 53 kts 59°
2026-04-21 22:45 55.94790 -3.37862 105 ft 109 kts 59°
2026-04-21 22:45 55.95270 -3.36441 107 ft 160 kts 58°
2026-04-21 22:45 55.95851 -3.34765 344 ft 182 kts 60°
2026-04-21 22:45 55.96574 -3.33319 1109 ft 174 kts 41°
2026-04-21 22:46 55.97375 -3.32110 1972 ft 164 kts 46°
2026-04-21 22:46 55.98189 -3.30791 2574 ft 174 kts 45°
2026-04-21 22:46 55.99163 -3.29205 2941 ft 206 kts 45°
2026-04-21 22:46 56.00455 -3.27896 3676 ft 226 kts 15°
2026-04-21 22:47 56.02041 -3.28084 4586 ft 243 kts 344°
2026-04-21 22:47 56.03449 -3.29850 5459 ft 259 kts 312°
2026-04-21 22:47 56.04224 -3.32670 6251 ft 272 kts 282°
2026-04-21 22:47 56.04182 -3.36002 7073 ft 278 kts 252°
2026-04-21 22:48 56.03292 -3.38943 7884 ft 277 kts 226°
2026-04-21 22:48 56.02202 -3.41834 8663 ft 286 kts 248°
2026-04-21 22:48 56.01614 -3.45173 9461 ft 291 kts 253°
2026-04-21 22:48 56.01105 -3.48527 10196 ft 297 kts 254°
2026-04-21 22:49 56.00611 -3.51941 10925 ft 301 kts 255°
2026-04-21 22:49 56.00105 -3.55478 11652 ft 306 kts 255°